Tracking 19717 objects as of 25-Jun-2019
HD Live streaming from Space Station
objects crossing your sky now

GALAXY 10R

Track GALAXY 10R now!
GALAXY 10R is classified as:


NORAD ID: 26056
Int'l Code: 2000-002A
Perigee: 35,958.5 km
Apogee: 35,987.4 km
Inclination: 8.2 °
Period: 1,445.3 minutes
Semi major axis: 42343 km
RCS: 16.229 m2 (large)
Launch date: January 25, 2000
Source: United States (US)
Launch site: FRENCH GUIANA (FRGUI)

Digital and voice communications; 24 C-band< 24 Ku-band; North America.
aabbcc
Your satellite tracking list
Your tracking list is empty




NASA's NSSDC Master Catalog

Two Line Element Set (TLE):
1 26056U 00002A   19175.64737036 -.00000111 +00000-0 +00000-0 0  9994
2 26056 008.2359 047.3724 0003413 042.1040 146.9708 00.99635879070926
Source of the keplerian elements: AFSPC